User: anonymous   Login
Location: Lamoine Observatory
(44.4551°N, 68.3470°W)
Time: 03:18:01
(UTC-04:00)
Language:

Cosmos 1674 Rocket - Orbit

View from above orbital plane
View from above orbital plane
View from above satellite
View from above satellite

Ground track
Ground track

The orbit data is extracted from the following two-line orbital elements,

1 15945U 85069B   17149.94640408 +.00000102 +00000-0 +93530-5 0  9997
2 15945 082.5259 150.1061 0019353 347.0467 013.0248 14.83924573697245
Epoch (UTC): 29 May 2017 22:42:49
Eccentricity: 0.0019353
inclination: 82.5259°
perigee height: 603 km
apogee height: 630 km
right ascension of ascending node: 150.1061°
argument of perigee: 347.0467°
revolutions per day: 14.83924573
mean anomaly at epoch: 13.0248°
orbit number at epoch: 69724

The dashed part of the orbit path shows where the satellite is in the earth's shadow,  

DLR